Home > Weather > Sabha > Past weeks

Flag for Libya Weather for the Past 2 Weeks in Sabha, Libya

Now
55 °F

Sunny.


Feels Like: 53 °F
Forecast: 67 / 93 °F
Wind: 10 mph from Northeast

Location: In Amenas

Current Time: May 4, 2016 at 8:11:06 AM

Latest Report: May 4, 2016 at 7:00 AM


Visibility: 10 mi

Pressure: 30.09 "Hg

Humidity: 26%

Dew Point: 21 °F

Location of SabhaLocation

Historic Weather in Sabha — Graph

°F

Sabha Temperature Yesterday

Maximum temperature yesterday: 82 °F (at 4:00 PM)
Minimum temperature yesterday: 63 °F (at 7:00 AM)
Average temperature yesterday: 73 °F

High & Low Weather Summary for the Past Weeks

 TemperatureHumidityPressure
High109 °F (Apr 28, 3:00 PM)65% (May 2, 9:00 PM)30.12 "Hg (May 2, 9:00 PM)
Low55 °F (May 4, 6:00 AM)4% (Apr 19, 4:00 PM)29.68 "Hg (Apr 24, 6:00 PM)
Average87 °F17%29.90 "Hg
* Reported Apr 19 6:00 AM — May 4 6:00 AM, Sabha, Weather by CustomWeather, © 2016

Note: Actual official high and low records may vary slightly from our data, if they occured in-between our weather recording intervals... More about our weather records

Advertising

Sabha Weather History for the Previous 24 Hours

Scroll right to see more
 ConditionsComfort  
Time TempWeatherWind HumidityBarometerVisibility
6:00 AM
Wed, May 4
55 °FSunny.9 mph28%30.09 "Hg10 mi
5:00 AM57 °FClear.10 mph27%30.07 "Hg10 mi
4:00 AM59 °FClear.12 mph27%30.07 "Hg10 mi
3:00 AM63 °FClear.16 mph24%30.09 "Hg10 mi
2:00 AM64 °FClear.14 mph24%30.09 "Hg10 mi
1:00 AM64 °FClear.13 mph24%30.09 "Hg10 mi
12:00 AM66 °FClear.10 mph18%30.12 "Hg10 mi
11:00 PM
Tue, May 3
68 °FClear.9 mph17%30.12 "Hg10 mi
10:00 PM70 °FPassing clouds.8 mph17%30.12 "HgN/A
9:00 PM75 °FPassing clouds.6 mph14%30.09 "HgN/A
8:00 PM77 °FPassing clouds.7 mph13%30.09 "HgN/A
7:00 PM79 °FPassing clouds.10 mph12%30.09 "HgN/A
6:00 PM81 °FPartly sunny.8 mph13%30.09 "HgN/A
5:00 PM81 °FPartly sunny.5 mph13%30.09 "HgN/A
4:00 PM82 °FScattered clouds.7 mph13%30.09 "HgN/A
3:00 PM81 °FSunny.7 mph12%30.09 "Hg10 mi
2:00 PM81 °FSunny.9 mph14%30.12 "Hg10 mi
1:00 PM77 °FSunny.12 mph15%30.12 "Hg10 mi
12:00 PM77 °FSunny.12 mph18%30.12 "Hg10 mi
11:00 AM75 °FSunny.15 mph21%30.12 "Hg10 mi
10:00 AM72 °FSunny.14 mph31%30.12 "Hg10 mi
9:00 AM68 °FSunny.12 mph33%30.09 "Hg10 mi
Weather by CustomWeather, © 2016

See weather overviewHow to use our weather pages